#datint,netname,site,siteID,timestamp,IntT,BattV,AirT2,AirT,AirT_Avg,AirT_Max,AirT_Min,RH_Avg,RH_Max,RH_Min,EA_Avg,Td_Avg,Td_Max,Td_Min,WindS_Smp,WindS_Avg,WindD_Avg,WindD_SD,WindS_Max,ETo,ETr,SoilT4,SoilT8,SoilVWC8,SolarW_Avg,wetstate_Avg,wetT_Avg,Precip_accum,Precip_WPG,Precip_TB
15min,AgWx,beryljct,423,23MAY2018:01:00:00,48.1,13.03,48.0,47.2,47.7,48.2,46.9,75,79,72,0.849,40.1,41.0,39.5,0.943,0.5,47,19,2.2,-0.00026,-0.00039,60.0,61.6,14,0,0,45.7,13.90,0.00,0.00
15min,AgWx,beryljct,423,23MAY2018:01:15:00,47.5,13.03,46.2,44.7,46.2,47.4,44.5,77,81,75,0.808,39.6,40.4,38.5,0,0.5,15,0.1,1.1,-0.00026,-0.00038,59.8,61.5,14,0,0,44.5,13.90,0.00,0.00
15min,AgWx,beryljct,423,23MAY2018:01:30:00,46.5,13.01,44.2,43.5,44.1,45.2,42.7,82,86,79,0.782,38.9,40.7,37.9,3.683,1.7,332,23,4.6,-0.00017,-0.00023,59.6,61.4,14,0,0,42.2,13.90,0.00,0.00
15min,AgWx,beryljct,423,23MAY2018:01:45:00,45.6,13.01,43.6,42.7,43.4,43.7,42.7,83,85,80,0.783,38.4,39.6,37.6,2.126,2.0,327,4.0,3.8,-0.00015,-0.00019,59.5,61.4,14,0,0,41.6,13.90,0.00,0.00
15min,AgWx,beryljct,423,23MAY2018:02:00:00,44.6,12.99,42.3,42.2,42.0,42.8,41.4,86,88,84,0.790,38.0,38.6,37.5,0,0.6,328,0.8,2.1,-0.00024,-0.00035,59.3,61.3,14,0,0,39.8,13.90,0.00,0.00
15min,AgWx,beryljct,423,23MAY2018:02:15:00,43.9,13,43.3,41.6,42.9,44.4,41.2,83,89,79,0.754,38.2,39.2,37.1,0.658,0.4,326,0.0,1.4,-0.00026,-0.00039,59.1,61.2,14,0,0,40.4,13.90,0.00,0.00
15min,AgWx,beryljct,423,23MAY2018:02:30:00,43.2,12.98,42.4,42.0,42.0,42.9,41.3,88,92,85,0.808,38.8,40.0,37.3,0,1.0,326,0.0,2.5,-0.00022,-0.00031,58.9,61.1,14,0,0,40.2,13.90,0.00,0.00
15min,AgWx,beryljct,423,23MAY2018:02:45:00,42.7,12.98,42.4,42.4,42.0,42.6,41.3,89,90,87,0.799,38.9,39.6,38.2,0.022,0.4,327,0.2,1.2,-0.00025,-0.00038,58.7,61.0,14,0,0,39.5,13.90,0.00,0.00
15min,AgWx,beryljct,423,23MAY2018:03:00:00,42.2,12.97,41.2,39.7,41.1,42.1,39.7,89,91,84,0.744,38.1,39.5,36.6,1.008,0.2,327,0.0,1.3,-0.00026,-0.00041,58.5,60.9,14,0,0,39.0,13.90,0.00,0.00
15min,AgWx,beryljct,423,23MAY2018:03:15:00,41.7,12.97,39.5,39.9,39.2,39.9,38.5,90,92,89,0.739,36.5,37.2,35.8,0.965,0.2,326,0.3,1.3,-0.00026,-0.00040,58.3,60.9,14,0,0,37.6,13.90,0.00,0.00
15min,AgWx,beryljct,423,23MAY2018:03:30:00,41.3,12.94,40.1,39.9,39.7,40.2,38.8,90,92,87,0.761,36.9,37.8,35.8,1.337,0.9,326,0.1,1.8,-0.00021,-0.00031,58.1,60.8,14,0,0,38.0,13.91,0.00,0.00
15min,AgWx,beryljct,423,23MAY2018:03:45:00,41.1,12.95,39.9,38.7,39.7,40.4,38.2,90,92,89,0.724,37.0,38.1,35.3,0.789,1.2,326,0.1,1.7,-0.00020,-0.00028,57.9,60.7,14,0,0,38.2,13.91,0.00,0.00
15min,AgWx,beryljct,423,23MAY2018:04:00:00,40.7,12.94,38.9,38.6,38.5,39.4,38.2,90,91,87,0.702,35.7,36.9,35.3,2.565,1.7,227,52,3.5,-0.00017,-0.00023,57.7,60.6,14,0,0,37.6,13.90,0.00,0.00
15min,AgWx,beryljct,423,23MAY2018:04:15:00,40.4,12.91,40.3,40.2,39.7,40.8,38.5,88,91,85,0.715,36.5,37.2,35.3,2.872,2.1,200,0.0,3.0,-0.00015,-0.00020,57.5,60.5,14,0,0,38.2,13.91,0.00,0.00
15min,AgWx,beryljct,423,23MAY2018:04:30:00,40.3,12.91,39.5,39.6,39.2,40.1,38.2,88,91,84,0.730,35.9,36.7,35.0,1.052,2.6,188,4.4,3.7,-0.00014,-0.00017,57.3,60.4,14,0,0,38.6,13.91,0.00,0.00
15min,AgWx,beryljct,423,23MAY2018:04:45:00,40.7,12.9,41.6,40.5,41.1,43.4,39.6,87,90,80,0.763,37.4,38.7,36.5,0,0.7,188,1.9,1.4,-0.00023,-0.00033,57.1,60.3,14,0,0,40.4,13.91,0.00,0.00
15min,AgWx,beryljct,423,23MAY2018:05:00:00,41.3,12.9,40.3,39.4,40.1,40.5,39.4,91,92,89,0.754,37.6,38.0,37.3,0.219,0.3,190,3.6,0.9,-0.00025,-0.00039,56.9,60.2,14,0,0,40.3,13.90,0.00,0.00
15min,AgWx,beryljct,423,23MAY2018:05:15:00,41.4,12.89,39.5,38.2,39.3,39.9,38.2,92,93,91,0.714,37.1,37.8,35.9,0.548,0.4,236,27,1.4,-0.00024,-0.00036,56.7,60.1,14,0,0,39.3,13.90,0.00,0.00
15min,AgWx,beryljct,423,23MAY2018:05:30:00,41.3,12.89,38.6,38.3,38.2,38.6,38.0,92,92,91,0.724,36.0,36.3,35.8,1.469,0.9,268,0.0,2.4,-0.00021,-0.00030,56.6,60.0,14,0,0,38.6,13.91,0.00,0.00
15min,AgWx,beryljct,423,23MAY2018:05:45:00,41.2,12.87,38.8,38.6,38.4,38.6,38.1,93,93,92,0.737,36.5,36.7,36.1,1.162,0.8,268,0.4,1.9,0.00002,0.00003,56.4,59.9,14,0,0,38.5,13.90,0.00,0.00
15min,AgWx,beryljct,423,23MAY2018:06:00:00,41.0,12.88,39.4,39.2,38.9,39.3,38.5,92,93,90,0.733,36.9,37.2,36.6,0,0.4,268,0.3,1.5,0.00001,0.00002,56.3,59.8,14,0,0,38.5,13.91,0.00,0.00
15min,AgWx,beryljct,423,23MAY2018:06:15:00,40.6,12.87,39.2,39.0,38.8,39.2,38.6,93,94,90,0.751,36.9,37.6,36.5,1.228,0.1,249,1.8,1.2,0.00001,0.00001,56.1,59.7,14,1,0,38.0,13.91,0.00,0.00
15min,AgWx,beryljct,423,23MAY2018:06:30:00,40.6,12.87,39.8,40.0,39.2,40.0,38.6,92,93,90,0.754,37.1,37.5,36.6,2.609,1.8,212,29,3.7,0.00008,0.00010,56.0,59.6,14,10,0,39.5,13.91,0.00,0.00
15min,AgWx,beryljct,423,23MAY2018:06:45:00,41.1,12.89,40.7,40.3,40.3,40.6,40.0,90,92,89,0.774,37.6,38.0,37.2,3.508,2.5,154,8.0,3.5,0.00022,0.00027,55.8,59.5,14,37,0,43.3,13.91,0.00,0.00
15min,AgWx,beryljct,423,23MAY2018:07:00:00,41.7,12.89,42.2,42.6,41.6,42.6,40.3,88,92,86,0.800,38.4,38.8,37.9,3.836,3.5,160,6.0,4.3,0.00026,0.00033,55.7,59.4,14,39,0,44.4,13.91,0.00,0.00
15min,AgWx,beryljct,423,23MAY2018:07:15:00,42.6,12.9,44.2,45.2,43.6,45.2,42.6,85,87,83,0.851,39.4,40.5,38.6,2.236,2.3,171,1.1,4.2,0.00048,0.00057,55.6,59.3,14,89,0,49.8,13.91,0.00,0.00
15min,AgWx,beryljct,423,23MAY2018:07:30:00,44.6,12.95,47.1,47.4,46.6,47.6,45.3,82,84,79,0.910,41.2,42.6,40.0,0.417,1.2,172,0.1,2.3,0.00072,0.00080,55.5,59.2,14,142,0,59.6,13.90,0.00,0.00
15min,AgWx,beryljct,423,23MAY2018:07:45:00,46.7,12.99,48.5,48.3,48.2,48.7,47.4,76,82,70,0.807,40.9,42.2,39.0,1.008,0.4,172,0.1,1.6,0.00078,0.00085,55.4,59.1,14,145,0,62.2,13.90,0.00,0.00
15min,AgWx,beryljct,423,23MAY2018:08:00:00,48.0,13.05,48.8,48.8,48.5,48.8,48.2,73,75,70,0.875,40.3,41.1,39.0,0,0.5,172,0.1,1.5,0.00088,0.00096,55.3,59.0,14,162,0,60.2,13.90,0.00,0.00
15min,AgWx,beryljct,423,23MAY2018:08:15:00,50.0,13.12,50.1,50.7,49.7,50.7,48.8,71,74,67,0.911,40.7,42.3,39.7,0.57,0.3,171,0.2,1.7,0.00154,0.00165,55.2,58.9,14,304,0,76.2,13.90,0.00,0.00
15min,AgWx,beryljct,423,23MAY2018:08:30:00,52.6,13.15,51.4,51.2,51.1,51.6,50.6,70,72,68,0.909,41.9,42.5,40.7,0.833,0.2,171,0.1,1.1,0.00166,0.00178,55.2,58.8,14,317,0,82.6,13.90,0.00,0.00
15min,AgWx,beryljct,423,23MAY2018:08:45:00,55.3,13.33,52.4,53.6,52.1,53.6,51.2,69,75,63,0.898,42.4,44.0,40.6,2.411,1.3,310,68,3.1,0.00242,0.00265,55.2,58.7,13,468,0,85.3,13.90,0.00,0.00
15min,AgWx,beryljct,423,23MAY2018:09:00:00,58.3,13.6,54.5,55.0,54.3,55.1,53.5,61,66,56,0.852,41.0,42.8,39.4,3.091,2.6,1.2,15,4.2,0.00299,0.00336,55.2,58.6,13,557,0,88.9,13.90,0.00,0.00
15min,AgWx,beryljct,423,23MAY2018:09:15:00,59.8,13.79,55.6,55.2,55.4,55.9,54.9,57,60,56,0.830,40.6,42.0,39.7,3.42,3.6,344,14,6.3,0.00222,0.00263,55.3,58.5,13,359,0,75.3,13.90,0.00,0.00
15min,AgWx,beryljct,423,23MAY2018:09:30:00,60.3,13.91,55.5,55.9,55.3,55.9,55.0,56,58,55,0.849,39.8,41.1,39.2,0.022,2.5,344,7.1,5.1,0.00238,0.00274,55.4,58.5,13,396,0,75.7,13.90,0.00,0.00
15min,AgWx,beryljct,423,23MAY2018:09:45:00,61.4,14.29,56.7,57.3,56.5,57.7,55.4,56,60,52,0.845,40.8,43.1,39.4,2.017,1.4,354,18,2.9,0.00331,0.00364,55.5,58.4,13,585,0,87.6,13.89,0.00,0.00
15min,AgWx,beryljct,423,23MAY2018:10:00:00,63.8,14.04,58.5,58.5,58.4,59.3,57.7,53,59,49,0.853,41.5,44.6,39.3,1.403,1.5,52,39,3.6,0.00340,0.00376,55.7,58.3,13,565,0,94.0,13.89,0.00,0.00
15min,AgWx,beryljct,423,23MAY2018:10:15:00,63.8,14.23,58.0,58.9,57.9,58.9,57.6,57,67,50,1.105,42.9,47.9,40.0,3.486,3.1,103,7.5,4.5,0.00210,0.00248,55.9,58.3,13,310,0,76.2,13.89,0.00,0.00
15min,AgWx,beryljct,423,23MAY2018:10:30:00,63.9,14.23,59.6,60.6,59.4,60.6,58.6,55,63,50,0.902,43.2,46.7,41.4,1.096,2.7,97,16,5.3,0.00345,0.00391,56.0,58.3,13,567,0,84.9,13.89,0.00,0.00
15min,AgWx,beryljct,423,23MAY2018:10:45:00,66.2,14.22,62.5,63.4,62.3,63.5,60.6,51,58,48,1.051,43.7,46.7,40.8,1.535,1.2,108,21,3.1,0.00523,0.00570,56.2,58.2,13,863,0,108.8,13.88,0.00,0.00
15min,AgWx,beryljct,423,23MAY2018:11:00:00,69.0,14.15,65.4,66.2,65.3,66.7,63.6,44,55,36,0.798,42.8,48.0,38.8,0.088,1.9,145,18,4.6,0.00515,0.00571,56.5,58.2,13,803,0,110.7,13.88,0.00,0.00
15min,AgWx,beryljct,423,23MAY2018:11:15:00,70.5,14.1,66.4,67.2,66.4,67.5,65.6,41,49,35,0.877,41.8,46.9,37.7,3.705,2.6,124,29,5.3,0.00512,0.00577,56.7,58.2,13,794,0,102.2,13.87,0.00,0.00
15min,AgWx,beryljct,423,23MAY2018:11:30:00,72.2,14.05,68.2,68.2,68.3,68.8,67.2,34,42,27,0.832,39.0,44.5,32.5,5.239,7.0,149,35,16.3,0.00653,0.00783,57.0,58.2,13,979,0,100.2,13.87,0.00,0.00
15min,AgWx,beryljct,423,23MAY2018:11:45:00,72.9,14.08,68.6,66.8,68.8,70.2,66.8,33,40,28,0.713,38.4,43.5,35.1,9.14,8.6,201,29,13.9,0.00535,0.00676,57.4,58.2,13,703,0,90.5,13.87,0.00,0.00
15min,AgWx,beryljct,423,23MAY2018:12:00:00,71.7,14.06,66.8,67.1,66.7,67.9,65.9,33,40,29,0.674,37.0,41.3,32.8,8.02,7.2,240,20,12.2,0.00350,0.00463,57.8,58.2,13,396,0,77.4,13.87,0.00,0.00
15min,AgWx,beryljct,423,23MAY2018:12:15:00,70.9,14.1,67.8,69.4,67.7,69.4,66.5,32,39,27,0.703,36.7,41.5,33.4,5.174,8.1,249,25,14.4,0.00470,0.00602,58.1,58.3,13,600,0,81.0,13.87,0.00,0.00
15min,AgWx,beryljct,423,23MAY2018:12:30:00,72.6,13.63,70.7,70.8,70.6,71.8,69.5,30,37,26,0.700,37.9,42.3,33.9,9.54,10.1,177,23,22.3,0.00827,0.01008,58.5,58.3,13,1207,0,99.2,13.86,0.00,0.00
15min,AgWx,beryljct,423,23MAY2018:12:45:00,74.3,13.61,70.9,71.3,71.0,71.9,70.3,28,34,23,0.751,36.2,41.2,30.8,15.43,10.7,179,14,16.6,0.00787,0.00977,58.9,58.4,13,1120,0,96.8,13.86,0.00,0.00
15min,AgWx,beryljct,423,23MAY2018:13:00:00,75.1,13.59,70.4,71.9,70.5,71.9,69.8,31,38,27,0.816,38.4,43.2,35.2,7.3,11.4,167,14,16.0,0.00794,0.00985,59.2,58.5,13,1149,0,93.8,13.86,0.00,0.00
15min,AgWx,beryljct,423,23MAY2018:13:15:00,75.5,13.69,70.5,70.3,70.7,72.2,69.8,32,38,26,0.803,39.0,44.6,35.1,6.949,11.1,160,15,19.0,0.00780,0.00967,59.7,58.6,13,1124,0,93.2,13.86,0.00,0.00
15min,AgWx,beryljct,423,23MAY2018:13:30:00,75.0,13.59,70.5,72.5,70.4,72.5,68.4,30,35,24,0.827,37.2,42.2,32.0,5.217,8.9,175,26,19.3,0.00608,0.00766,60.2,58.7,13,820,0,89.4,13.86,0.00,0.00
15min,AgWx,beryljct,423,23MAY2018:13:45:00,74.9,13.59,71.0,71.5,71.2,72.8,70.3,29,37,24,0.914,37.3,43.4,32.3,8.79,10.3,176,19,19.4,0.00624,0.00799,60.7,58.8,13,819,0,88.4,13.86,0.00,0.00
15min,AgWx,beryljct,423,23MAY2018:14:00:00,75.5,13.61,71.7,72.5,71.8,72.9,70.5,30,35,23,0.742,38.6,43.0,31.0,8.42,9.6,174,21,17.3,0.00760,0.00935,61.2,58.9,13,1074,0,93.7,13.86,0.00,0.00
15min,AgWx,beryljct,423,23MAY2018:14:15:00,76.0,13.59,71.4,72.5,71.5,72.8,70.3,29,35,23,0.722,37.4,41.9,32.4,6.774,10.6,166,17,17.1,0.00711,0.00896,61.7,59.0,13,986,0,90.7,13.86,0.00,0.00
15min,AgWx,beryljct,423,23MAY2018:14:30:00,76.0,13.59,71.2,71.8,71.4,73.3,69.5,29,36,24,0.762,37.4,42.7,32.0,7.717,8.6,167,17,15.7,0.00598,0.00754,62.2,59.2,13,798,0,88.0,13.86,0.00,0.00
15min,AgWx,beryljct,423,23MAY2018:14:45:00,76.6,13.56,72.5,71.7,72.7,73.9,71.3,29,38,24,0.893,38.3,44.9,33.2,7.76,8.1,175,21,12.9,0.00763,0.00927,62.7,59.4,13,1073,0,95.0,13.86,0.00,0.00
15min,AgWx,beryljct,423,23MAY2018:15:00:00,76.2,13.59,70.1,69.2,70.3,71.8,69.1,33,39,27,0.697,39.7,44.3,35.3,8.33,9.8,146,16,14.9,0.00523,0.00679,63.2,59.5,13,660,0,83.3,13.86,0.00,0.00
15min,AgWx,beryljct,423,23MAY2018:15:15:00,75.2,13.59,70.1,70.8,70.0,71.6,68.5,31,39,25,0.647,37.6,43.9,32.1,9.34,9.0,156,17,14.0,0.00513,0.00664,63.6,59.7,13,673,0,81.7,13.86,0.00,0.00
15min,AgWx,beryljct,423,23MAY2018:15:30:00,75.3,13.56,71.7,70.5,71.7,73.4,70.3,28,35,22,0.651,37.2,43.5,30.3,5.985,8.7,178,32,14.6,0.00531,0.00687,64.1,59.9,13,672,0,85.9,13.86,0.00,0.00
15min,AgWx,beryljct,423,23MAY2018:15:45:00,75.3,13.57,72.4,73.3,72.2,73.9,69.5,25,33,20,0.638,34.7,41.8,30.0,5.875,7.8,191,28,15.6,0.00592,0.00746,64.4,60.1,13,808,0,86.3,13.86,0.00,0.00
15min,AgWx,beryljct,423,23MAY2018:16:00:00,75.2,13.58,71.0,69.5,71.3,73.5,69.0,25,31,20,0.705,33.8,38.7,29.5,5.502,9.1,185,22,13.7,0.00354,0.00509,64.7,60.3,13,289,0,78.4,13.86,0.00,0.00
15min,AgWx,beryljct,423,23MAY2018:16:15:00,75.1,13.57,72.4,73.9,72.1,74.5,68.9,28,37,23,0.810,36.8,44.6,30.0,6.73,8.7,174,29,15.9,0.00568,0.00727,64.8,60.5,13,764,0,84.4,13.87,0.00,0.00
15min,AgWx,beryljct,423,23MAY2018:16:30:00,76.6,13.51,72.8,71.3,73.1,74.3,71.3,27,34,21,0.676,36.6,43.1,31.3,9.45,9.6,173,21,15.6,0.00551,0.00722,64.9,60.6,13,693,0,86.0,13.86,0.00,0.00
15min,AgWx,beryljct,423,23MAY2018:16:45:00,76.7,13.52,72.9,72.7,72.8,74.3,71.0,25,30,22,0.661,34.9,38.8,31.4,5.305,8.8,180,22,15.5,0.00527,0.00692,65.1,60.8,13,680,0,82.7,13.86,0.00,0.00
15min,AgWx,beryljct,423,23MAY2018:17:00:00,77.4,13.52,72.6,72.9,72.7,74.0,71.9,28,36,24,0.804,38.0,44.0,33.7,5.415,6.2,162,23,11.4,0.00503,0.00628,65.3,61.0,13,688,0,86.2,13.86,0.00,0.00
15min,AgWx,beryljct,423,23MAY2018:17:15:00,78.1,13.47,73.5,72.9,73.5,74.3,72.9,26,31,21,0.674,36.3,41.2,31.7,4.143,7.4,209,16,12.5,0.00480,0.00624,65.5,61.2,13,618,0,85.5,13.86,0.00,0.00
15min,AgWx,beryljct,423,23MAY2018:17:30:00,78.3,13.5,73.0,72.1,73.1,73.9,72.1,26,32,21,0.777,36.6,41.5,30.9,2.959,7.0,223,17,15.6,0.00410,0.00543,65.7,61.3,13,515,0,82.4,13.86,0.00,0.00
15min,AgWx,beryljct,423,23MAY2018:17:45:00,77.1,13.51,72.0,71.4,72.1,73.5,70.6,26,29,23,0.646,35.0,37.8,32.7,8.88,10.5,197,15,16.8,0.00344,0.00513,66.0,61.5,13,340,0,76.0,13.87,0.00,0.00
15min,AgWx,beryljct,423,23MAY2018:18:00:00,75.7,13.58,71.9,72.8,71.8,73.0,70.2,27,31,23,0.671,35.7,39.1,32.0,3.88,7.3,179,13,11.9,0.00322,0.00452,66.3,61.6,13,384,0,76.0,13.87,0.00,0.00
15min,AgWx,beryljct,423,23MAY2018:18:15:00,75.8,13.53,72.6,72.7,72.6,73.5,72.0,26,32,21,0.698,35.5,40.3,30.8,12.87,8.4,171,21,13.8,0.00397,0.00546,66.6,61.7,13,476,0,78.6,13.87,0.00,0.00
15min,AgWx,beryljct,423,23MAY2018:18:30:00,76.0,13.55,72.6,72.7,72.6,73.2,72.1,25,27,22,0.646,34.5,36.4,31.4,9.27,9.3,199,15,13.0,0.00375,0.00536,66.7,61.9,13,416,0,77.0,13.87,0.00,0.00
15min,AgWx,beryljct,423,23MAY2018:18:45:00,75.9,13.56,72.3,72.0,72.4,72.9,71.8,25,28,22,0.641,34.1,37.3,31.5,4.056,7.1,208,19,12.9,0.00311,0.00442,66.9,62.0,13,364,0,76.0,13.87,0.00,0.00
15min,AgWx,beryljct,423,23MAY2018:19:00:00,75.5,13.38,71.7,71.5,71.7,72.1,71.1,26,30,23,0.609,35.0,38.7,31.9,9.8,7.6,215,13,15.7,0.00281,0.00412,67.1,62.1,13,314,0,74.4,13.87,0.00,0.00
15min,AgWx,beryljct,423,23MAY2018:19:15:00,74.9,13.32,71.3,71.1,71.3,71.9,70.9,26,29,23,0.641,34.4,37.6,31.4,10.26,7.6,210,11,13.2,0.00248,0.00377,67.2,62.3,13,263,0,72.7,13.87,0.00,0.00
15min,AgWx,beryljct,423,23MAY2018:19:30:00,74.1,13.28,70.4,70.5,70.5,71.4,69.5,26,30,23,0.608,34.0,36.8,31.4,10.65,7.9,228,18,12.7,0.00220,0.00348,67.3,62.4,13,214,0,71.2,13.87,0.00,0.00
15min,AgWx,beryljct,423,23MAY2018:19:45:00,73.3,13.25,69.4,69.3,69.4,70.5,68.4,27,32,24,0.620,34.4,37.8,31.9,10.48,7.2,229,12,11.7,0.00175,0.00290,67.4,62.5,13,167,0,69.7,13.87,0.00,0.00
15min,AgWx,beryljct,423,23MAY2018:20:00:00,72.3,13.21,68.6,67.4,68.7,69.8,67.3,27,31,24,0.661,33.4,36.1,31.2,8.15,7.6,228,9.8,13.1,0.00104,0.00137,67.4,62.6,13,121,0,68.3,13.87,0.00,0.00
15min,AgWx,beryljct,423,23MAY2018:20:15:00,70.9,13.23,67.7,67.8,67.7,68.1,67.4,27,29,26,0.603,32.9,33.9,31.5,8.97,7.0,213,6.5,9.0,0.00087,0.00117,67.4,62.8,13,80,0,66.0,13.87,0.00,0.00
15min,AgWx,beryljct,423,23MAY2018:20:30:00,69.4,13.2,65.6,64.1,66.1,67.8,64.1,30,34,26,0.686,33.6,35.3,31.9,4.604,5.7,220,5.6,8.6,0.00063,0.00088,67.3,62.8,13,42,0,64.3,13.87,0.00,0.00
15min,AgWx,beryljct,423,23MAY2018:20:45:00,67.3,13.18,63.6,63.0,63.8,64.5,62.1,32,36,30,0.679,33.5,35.2,32.2,4.209,5.2,235,6.2,6.6,0.00046,0.00066,67.2,62.9,13,12,0,61.7,13.88,0.00,0.00
15min,AgWx,beryljct,423,23MAY2018:21:00:00,65.2,13.17,62.7,62.4,62.6,63.3,62.3,33,35,31,0.627,33.1,34.4,32.3,7.015,5.7,232,3.6,7.0,0.00047,0.00066,67.0,63.0,14,2,0,60.4,13.88,0.00,0.00
15min,AgWx,beryljct,423,23MAY2018:21:15:00,63.7,13.16,62.3,61.8,62.3,62.9,61.7,33,34,31,0.630,32.6,33.1,32.0,5.371,5.8,234,3.6,6.7,0.00047,0.00066,66.8,63.1,14,0,0,60.0,13.88,0.00,0.00
15min,AgWx,beryljct,423,23MAY2018:21:30:00,62.5,13.14,61.8,61.2,61.7,62.1,61.2,33,34,32,0.607,32.0,32.8,31.5,5.831,5.9,234,2.7,6.6,0.00047,0.00066,66.6,63.2,14,0,0,59.5,13.88,0.00,0.00
15min,AgWx,beryljct,423,23MAY2018:21:45:00,61.6,13.13,61.5,61.3,61.4,61.9,61.0,32,33,31,0.587,31.3,32.2,30.5,5.897,5.6,233,2.3,6.2,0.00044,0.00063,66.4,63.2,14,0,0,59.1,13.88,0.00,0.00
15min,AgWx,beryljct,423,23MAY2018:22:00:00,60.8,13.13,61.0,60.6,60.9,61.3,60.5,32,34,31,0.595,31.1,31.8,30.4,5.349,5.1,228,3.7,6.0,0.00040,0.00057,66.1,63.2,14,0,0,58.6,13.88,0.00,0.00
15min,AgWx,beryljct,423,23MAY2018:22:15:00,60.3,13.11,61.0,61.4,60.8,61.4,60.5,32,34,31,0.569,31.1,31.6,30.3,6.226,5.4,226,3.5,6.7,0.00042,0.00059,65.9,63.3,14,0,0,58.5,13.88,0.00,0.00
15min,AgWx,beryljct,423,23MAY2018:22:30:00,60.0,13.12,60.7,59.7,60.7,61.7,59.5,33,36,30,0.601,31.4,32.7,30.2,5.283,5.2,220,8.6,6.2,0.00039,0.00057,65.6,63.3,14,0,0,58.3,13.88,0.00,0.00
15min,AgWx,beryljct,423,23MAY2018:22:45:00,59.8,13.11,61.3,61.7,60.9,61.7,59.6,32,35,30,0.567,30.8,31.9,29.9,7.388,6.0,224,5.2,8.0,0.00047,0.00066,65.4,63.3,14,0,0,58.4,13.88,0.00,0.00
15min,AgWx,beryljct,423,23MAY2018:23:00:00,60.0,13.1,61.8,61.4,61.6,61.9,61.2,31,32,30,0.578,30.4,31.0,29.8,6.577,6.1,221,4.6,7.4,0.00050,0.00070,65.1,63.3,14,0,0,59.3,13.88,0.00,0.00
15min,AgWx,beryljct,423,23MAY2018:23:15:00,59.7,13.09,56.2,52.1,57.1,61.9,51.5,38,48,30,0.580,31.6,34.2,30.0,5.985,5.1,184,33,7.6,0.00033,0.00048,64.9,63.3,14,0,0,55.6,13.88,0.00,0.00
15min,AgWx,beryljct,423,23MAY2018:23:30:00,57.7,13.08,53.1,53.3,52.8,53.6,51.9,41,44,39,0.535,29.5,30.9,28.7,6.401,6.3,164,4.5,7.5,0.00034,0.00047,64.6,63.3,14,0,0,51.2,13.89,0.00,0.00
15min,AgWx,beryljct,423,23MAY2018:23:45:00,56.2,13.07,53.3,52.3,53.2,53.7,52.3,39,42,38,0.553,28.9,29.9,28.4,5.985,5.4,168,2.9,6.5,0.00030,0.00042,64.4,63.3,14,0,0,51.4,13.89,0.00,0.00
15min,AgWx,beryljct,423,24MAY2018:00:00:00,54.9,13.05,52.8,53.0,52.5,53.0,52.0,39,42,37,0.516,28.5,29.5,27.7,5.612,6.1,172,4.8,6.9,0.00034,0.00046,64.1,63.3,14,0,0,50.9,13.89,0.00,0.00
15min,AgWx,beryljct,423,24MAY2018:00:15:00,54.0,13.05,52.1,52.2,52.0,53.0,51.3,41,45,38,0.557,29.3,30.6,27.8,6.226,5.7,165,4.2,6.8,0.00030,0.00041,63.9,63.2,14,0,0,50.4,13.89,0.00,0.00
15min,AgWx,beryljct,423,24MAY2018:00:30:00,53.4,13.05,52.7,52.5,52.4,53.5,51.7,41,43,37,0.535,29.2,30.1,28.0,6.401,6.1,168,3.9,7.2,0.00033,0.00045,63.6,63.2,14,0,0,50.8,13.89,0.00,0.00
15min,AgWx,beryljct,423,24MAY2018:00:45:00,53.0,13.03,52.4,51.6,52.3,52.6,51.5,41,42,40,0.545,29.3,29.7,28.8,6.62,6.4,167,3.6,7.1,0.00034,0.00046,63.4,63.1,14,0,0,50.8,13.89,0.00,0.00
15min,AgWx,bigpiney,439,23MAY2018:01:00:00,47.9,12.71,45.0,44.5,44.1,44.5,43.7,93,93,92,0.915,42.1,42.3,41.9,2.17,1.9,205,12,3.3,-0.00011,-0.00014,52.6,50.4,54,0,0,0.0,.,0.00,0.00
15min,AgWx,bigpiney,439,23MAY2018:01:15:00,48.0,12.7,45.3,44.8,44.5,44.8,44.1,92,93,91,0.933,42.3,42.8,41.8,5.678,4.4,185,7.5,6.1,-0.00006,-0.00006,52.6,50.4,54,0,8,0.0,.,0.00,0.00
15min,AgWx,bigpiney,439,23MAY2018:01:30:00,48.0,12.69,43.9,43.7,44.3,45.0,43.7,87,92,84,0.828,40.6,42.8,39.5,3.047,4.3,166,13,6.8,-0.00003,-0.00003,52.4,50.4,54,0,100,0.0,.,0.00,0.05
15min,AgWx,bigpiney,439,23MAY2018:01:45:00,47.9,12.68,45.0,44.7,44.0,44.7,43.6,89,92,86,0.922,41.0,42.5,39.7,4.691,3.7,126,16,5.4,-0.00005,-0.00006,52.3,50.3,54,0,100,0.0,.,0.00,0.01
15min,AgWx,bigpiney,439,23MAY2018:02:00:00,47.8,12.66,44.9,44.6,44.6,44.7,44.4,92,93,91,0.912,42.5,42.8,42.0,4.056,4.6,115,7.8,7.5,-0.00005,-0.00006,52.3,50.3,54,0,100,0.0,.,0.00,0.02
15min,AgWx,bigpiney,439,23MAY2018:02:15:00,47.9,12.65,44.0,43.7,44.2,44.6,43.7,91,91,90,0.885,41.7,42.2,41.4,4.209,5.1,126,7.2,8.9,-0.00004,-0.00004,52.2,50.3,54,0,100,0.0,.,0.00,0.01
15min,AgWx,bigpiney,439,23MAY2018:02:30:00,47.7,12.64,43.6,43.3,43.5,43.8,43.3,92,93,91,0.881,41.3,41.5,41.1,3.99,4.0,118,17,6.2,-0.00006,-0.00007,52.1,50.3,54,0,100,0.0,.,0.00,0.02
15min,AgWx,bigpiney,439,23MAY2018:02:45:00,47.6,12.63,43.6,43.3,43.3,43.4,43.3,93,93,92,0.883,41.4,41.5,41.3,4.647,4.0,108,8.7,5.7,-0.00007,-0.00007,52.0,50.2,54,0,100,0.0,.,0.00,0.00
15min,AgWx,bigpiney,439,23MAY2018:03:00:00,47.5,12.63,43.5,43.2,43.3,43.4,43.2,93,93,93,0.883,41.4,41.5,41.3,2.433,3.2,96,9.5,4.5,-0.00008,-0.00010,51.9,50.2,54,0,100,0.0,.,0.00,0.01
15min,AgWx,bigpiney,439,23MAY2018:03:15:00,47.3,12.61,43.5,43.2,43.2,43.3,43.1,94,94,93,0.888,41.5,41.6,41.4,1.074,1.6,74,22,3.1,-0.00012,-0.00016,51.8,50.3,54,0,100,0.0,.,0.00,0.00
15min,AgWx,bigpiney,439,23MAY2018:03:30:00,47.2,12.61,43.3,43.1,43.2,43.3,43.0,94,94,94,0.886,41.5,41.6,41.3,2.806,2.0,25,12,3.2,-0.00011,-0.00014,51.7,50.2,54,0,100,0.0,.,0.00,0.00
15min,AgWx,bigpiney,439,23MAY2018:03:45:00,46.9,12.6,42.9,42.7,42.9,43.1,42.6,94,94,94,0.880,41.3,41.4,41.1,2.105,2.6,359,8.6,3.4,-0.00010,-0.00012,51.6,50.2,54,0,100,0.0,.,0.00,0.00
15min,AgWx,bigpiney,439,23MAY2018:04:00:00,46.7,12.6,42.9,42.6,42.6,42.7,42.6,95,95,94,0.878,41.2,41.3,41.1,0,0.7,349,5.1,2.7,-0.00015,-0.00022,51.5,50.1,54,0,100,0.0,.,0.00,0.00
15min,AgWx,bigpiney,439,23MAY2018:04:15:00,46.3,12.58,42.7,42.4,42.6,42.7,42.4,94,95,94,0.865,41.1,41.3,40.8,1.863,1.3,38,16,2.5,-0.00013,-0.00018,51.5,50.1,54,0,100,0.0,.,0.00,0.00
15min,AgWx,bigpiney,439,23MAY2018:04:30:00,45.9,12.59,42.6,42.5,42.4,42.6,42.3,94,94,94,0.868,40.9,41.1,40.7,0,0.9,52,7.0,1.9,-0.00014,-0.00020,51.4,50.1,54,0,100,0.0,.,0.00,0.00
15min,AgWx,bigpiney,439,23MAY2018:04:45:00,45.5,12.58,41.7,41.6,42.1,42.4,41.6,94,94,93,0.839,40.4,40.8,39.9,3.705,2.1,201,7.6,3.8,-0.00011,-0.00014,51.3,50.0,54,0,100,0.0,.,0.00,0.00
15min,AgWx,bigpiney,439,23MAY2018:05:00:00,45.1,12.57,41.7,41.4,41.5,41.7,41.4,94,95,94,0.836,40.0,40.1,39.8,2.126,2.5,198,4.2,3.7,-0.00010,-0.00012,51.2,50.0,54,0,100,0.0,.,0.00,0.00
15min,AgWx,bigpiney,439,23MAY2018:05:15:00,44.7,12.58,40.1,40.2,41.3,41.6,40.2,95,95,94,0.796,39.8,40.2,38.7,2.828,2.2,213,15,3.1,-0.00010,-0.00013,51.1,50.0,54,0,100,0.0,.,0.00,0.00
15min,AgWx,bigpiney,439,23MAY2018:05:30:00,44.3,12.58,39.9,39.6,39.7,40.2,39.5,95,95,94,0.788,38.4,38.7,38.1,3.595,3.6,243,6.0,4.6,-0.00008,-0.00009,51.0,50.0,54,0,100,0.0,.,0.00,0.00
15min,AgWx,bigpiney,439,23MAY2018:05:45:00,43.9,12.57,39.8,39.4,39.6,39.7,39.4,96,96,95,0.782,38.4,38.6,38.1,3.398,3.4,240,7.1,5.3,-0.00008,-0.00010,50.9,49.9,54,1,100,0.0,.,0.00,0.00
15min,AgWx,bigpiney,439,23MAY2018:06:00:00,43.6,12.57,39.8,39.4,39.3,39.5,39.2,96,96,95,0.784,38.2,38.4,38.0,2.872,2.8,254,4.4,3.7,-0.00008,-0.00010,50.9,49.9,54,8,100,0.0,.,0.00,0.00
15min,AgWx,bigpiney,439,23MAY2018:06:15:00,43.4,12.6,40.1,39.6,39.5,39.7,39.4,96,96,96,0.792,38.4,38.7,38.3,2.828,3.0,291,19,3.7,-0.00030,-0.00030,50.7,49.9,54,24,100,0.0,.,0.00,0.00
15min,AgWx,bigpiney,439,23MAY2018:06:30:00,43.4,12.66,41.2,40.8,40.3,40.8,39.7,96,96,96,0.828,39.2,39.8,38.6,2.17,2.6,279,21,3.2,-0.00000,0.00001,50.7,49.9,54,90,100,0.0,.,0.00,0.00
15min,AgWx,bigpiney,439,23MAY2018:06:45:00,43.9,12.74,42.6,41.9,41.5,42.1,40.8,96,96,95,0.860,40.4,41.0,39.8,1.71,1.9,292,17,3.2,0.00030,0.00033,50.6,49.8,54,150,100,0.0,.,0.00,0.00
15min,AgWx,bigpiney,439,23MAY2018:07:00:00,45.1,12.82,44.3,43.3,42.8,43.6,42.0,94,96,92,0.876,41.2,41.7,40.7,2.784,1.4,274,18,3.8,0.00062,0.00068,50.5,49.8,54,209,100,0.0,.,0.00,0.00
15min,AgWx,bigpiney,439,23MAY2018:07:15:00,46.2,12.81,43.5,43.3,43.4,43.8,43.1,92,93,91,0.879,41.3,41.9,40.8,2.477,2.8,261,15,5.0,0.00038,0.00044,50.3,49.7,54,148,100,0.0,.,0.00,0.00
15min,AgWx,bigpiney,439,23MAY2018:07:30:00,46.7,12.97,44.3,44.6,43.5,44.6,42.9,92,93,91,0.918,41.4,42.5,40.6,2.894,3.0,267,12,4.2,0.00070,0.00078,50.3,49.7,54,228,100,0.0,.,0.00,0.00
15min,AgWx,bigpiney,439,23MAY2018:07:45:00,47.7,13.14,45.4,45.4,44.7,45.8,44.1,89,91,87,0.923,41.8,43.2,41.0,3.595,2.4,314,39,4.4,0.00117,0.00128,50.1,49.7,54,309,100,0.0,.,0.00,0.00
15min,AgWx,bigpiney,439,23MAY2018:08:00:00,49.1,13.23,46.7,46.1,45.5,46.3,44.7,88,90,86,0.912,42.2,43.0,41.4,0.153,0.8,51,49,3.0,0.00147,0.00159,50.1,49.6,54,353,100,0.0,.,0.00,0.00
15min,AgWx,bigpiney,439,23MAY2018:08:15:00,50.4,13.21,46.0,45.3,45.7,46.2,45.3,85,87,83,0.862,41.6,42.4,40.7,1.929,1.9,159,36,4.7,0.00102,0.00113,50.0,49.6,54,227,100,0.0,.,0.00,0.00
15min,AgWx,bigpiney,439,23MAY2018:08:30:00,51.1,13.35,46.4,46.3,45.7,46.6,45.3,85,87,84,0.909,41.6,42.9,40.9,1.732,2.3,164,27,4.1,0.00141,0.00155,49.9,49.6,54,324,100,0.0,.,0.00,0.00